This is the latest recevied weather packets stored in our database for station/object EA7URS-13. If no packets are shown the sender has not sent any weather packets the latest 10 day(s).
| Time | Temp. | Humidity | Pressure | Rain* | Wind** | Luminosity | Snow |
|---|---|---|---|---|---|---|---|
| 1788543143 | 36.11° C | 43% | 1009.3 hPa | 0 mm | - | 43 W/m² | - |
| 1788542842 | 36.11° C | 43% | 1009.3 hPa | 0 mm | - | 43 W/m² | - |
| 1788542541 | 36.11° C | 44% | 1009.3 hPa | 0 mm | - | 41 W/m² | - |
| 1788542240 | 36.11° C | 44% | 1009.3 hPa | 0 mm | - | 41 W/m² | - |
| 1788541939 | 36.67° C | 44% | 1009.3 hPa | 0 mm | - | 53 W/m² | - |
| 1788541638 | 36.67° C | 44% | 1009.3 hPa | 0 mm | - | 53 W/m² | - |
| 1788541344 | 36.67° C | 43% | 1009.4 hPa | 0 mm | - | 109 W/m² | - |
| 1788541036 | 36.67° C | 43% | 1009.4 hPa | 0 mm | - | 109 W/m² | - |
| 1788540734 | 36.67° C | 43% | 1009.2 hPa | 0 mm | - | 142 W/m² | - |
| 1788540433 | 36.67° C | 43% | 1009.2 hPa | 0 mm | - | 142 W/m² | - |
| 1788540132 | 38.33° C | 36% | 1009.3 hPa | 0 mm | - | 166 W/m² | - |
| 1788539831 | 38.33° C | 36% | 1009.3 hPa | 0 mm | - | 166 W/m² | - |
| 1788539529 | 38.89° C | 31% | 1009.4 hPa | 0 mm | - | 194 W/m² | - |
| 1788539229 | 38.89° C | 31% | 1009.4 hPa | 0 mm | - | 194 W/m² | - |
| 1788538927 | 38.89° C | 30% | 1009.5 hPa | 0 mm | - | 219 W/m² | - |
| 1788538626 | 38.89° C | 30% | 1009.5 hPa | 0 mm | - | 219 W/m² | - |
| 1788538325 | 39.44° C | 30% | 1009.6 hPa | 0 mm | - | 244 W/m² | - |
| 1788538024 | 39.44° C | 30% | 1009.6 hPa | 0 mm | - | 244 W/m² | - |
| 1788537723 | 38.33° C | 31% | 1009.5 hPa | 0 mm | - | 267 W/m² | - |
| 1788537422 | 38.33° C | 31% | 1009.5 hPa | 0 mm | - | 267 W/m² | - |
| 1788537121 | 38.33° C | 32% | 1009.7 hPa | 0 mm | - | 290 W/m² | - |
| 1788536820 | 38.33° C | 32% | 1009.7 hPa | 0 mm | - | 290 W/m² | - |
| 1788536519 | 37.78° C | 33% | 1010.1 hPa | 0 mm | - | 313 W/m² | - |
| 1788536217 | 37.78° C | 33% | 1010.1 hPa | 0 mm | - | 313 W/m² | - |
| 1788535916 | 37.78° C | 35% | 1010.2 hPa | 0 mm | - | 338 W/m² | - |
* Rain latest hour (hover to see other rain measurements)
** Current wind speed in m/s (hover to see current wind gust speed)